Regional Weather Roundup
Issued by NWS

Home | Current Version | Previous Version | Graphics & Text | Print | Product List | Glossary Off
Versions: 1 2 3 4 5 6 7 8 9 10 11 12 13 14 15 16 17 18 19 20 21 22 23 24 25 26 27 28 29 30 31 32 33 34 35 36 37 38 39 40 41 42 43 44 45 46 47 48 49 50

000
ASUS43 KMPX 282210
RWRMN
WEATHER ROUNDUP FOR MINNESOTA
NATIONAL WEATHER SERVICE TWIN CITIES/CHANHASSEN MN
400 PM CST WED JAN 28 2015


NOTE: "FAIR" INDICATES FEW OR NO CLOUDS BELOW 12,000 FEET WITH NO
SIGNIFICANT WEATHER AND/OR OBSTRUCTIONS TO VISIBILITY. N/A MEANS
CURRENT SKY AND/OR WEATHER CONDITIONS ARE NOT AVAILABLE.

MNZ060>063-068>070-282300-
   Twin Cities Metro

CITY           SKY/WX    TMP DP  RH WIND       PRES   REMARKS
TWIN CITIES    CLOUDY    31  26  82 SE8       29.81S HAZE    WCI  23
ST PAUL        CLOUDY    31  27  85 SE6       29.83S FOG     WCI  25
CRYSTAL        CLOUDY    31  27  85 SE6       29.80S FOG     WCI  25
BLAINE         CLOUDY    32  28  86 SE10      29.81S FOG     WCI  24
LAKEVILLE      PTSUNNY   30  28  93 SE7       29.79R FOG     WCI  23
EDEN PRAIRIE   CLOUDY    32  28  85 SE10      29.79R FOG     WCI  24
SOUTH ST PAUL  CLOUDY    32  28  84 SE3       29.81S FOG
LAKE ELMO      CLOUDY    32  28  86 SE7       29.82S FOG     WCI  26
$$
MNZ001>005-007-008-013>017-022>024-027-028-282300-
   Northwest Minnesota

CITY           SKY/WX    TMP DP  RH WIND       PRES   REMARKS
BEMIDJI        CLOUDY    31  30  96 CALM      29.77R FOG
HALLOCK        CLOUDY    34  32  93 N9        29.82R FOG     WCI  26
ROSEAU         FOG       34  28  80 CALM      29.79S VSB 1/2
WARROAD        DRZL/FOG  32  28  86 CALM      29.80R VSB 3/4
THIEF RVR FALL CLOUDY    34  30  86 W6        29.78S VSB 3/4 WCI  29
CROOKSTON      FOG       34  32  93 NW6       29.80R VSB 1/2 WCI  29
FOSSTON        CLOUDY    32  30  93 CALM      29.77S FOG
DETROIT LAKES  CLOUDY    34  32  93 S6        29.77S FOG     WCI  29
MOORHEAD       CLOUDY    36  36 100 SW5       29.80R FOG
PARK RAPIDS    CLOUDY    31  30  96 S6        29.76R FOG     WCI  25
MAHNOMEN       CLOUDY    33  31  94 SW3       29.77R FOG
$$
MNZ006-009>011-018-025>026-282300-
   North Central Minnesota

CITY           SKY/WX    TMP DP  RH WIND       PRES   REMARKS
BAUDETTE       CLOUDY    31  30  96 S5        29.78S FOG     WCI  26
FLAG ISLAND    FOG       28  28 100 CALM      29.79R VSB 1
INTL FALLS     CLOUDY    27  25  92 S3        29.80R FOG
WASKISH        CLOUDY    30  30 100 CALM      29.79R FOG
BIG FORK       CLOUDY    28  27  93 SE3       29.79S FOG
LONGVILLE      CLOUDY    28  27  93 S6        29.78S FOG     WCI  22
GRAND RAPIDS   CLOUDY    27  25  93 S7        29.79S WCI  19
CRANE LAKE     CLOUDY    25  23  93 S3        29.83F FOG
ORR            CLOUDY    25  21  86 S6        29.78F WCI  18
COOK           CLOUDY    27  23  86 S6        29.81F FOG     WCI  20
WALKER         CLOUDY    30  29  96 SW5       29.77S FOG     WCI  25
$$
MNZ012-019>021-037-282300-
   Northeast Minnesota

CITY           SKY/WX    TMP DP  RH WIND       PRES   REMARKS
DULUTH         CLOUDY    29  22  75 S12       29.79F HAZE    WCI  19
ELY            CLOUDY    27  23  86 SW5       29.81S WCI  21
HIBBING        CLOUDY    28  22  78 CALM      29.80S
EVELETH        CLOUDY    28  25  86 SW5       29.81F WCI  23
DULUTH HARBOR  CLOUDY    32  27  80 S5        29.85S WCI  27
TWO HARBORS    CLOUDY    30  25  80 E3        29.80F
SILVER BAY     CLOUDY    28  25  86 NE3       29.81F HAZE
GRAND MARAIS     N/A     31  26  82 SE7       29.87F WCI  24
G MARAIS ARPRT   N/A     25  21  86 SE8       29.80F FOG     WCI  16
$$
MNZ029>031-032-039>041-046>048-054>057-064-282300-
   West Central Minnesota

CITY           SKY/WX    TMP DP  RH WIND       PRES   REMARKS
FERGUS FALLS   CLOUDY    34  32  93 S7        29.80R FOG     WCI  28
WHEATON        CLOUDY    32  30  93 SE6       29.78R FOG     WCI  26
MORRIS         CLOUDY    34  32  93 SE7       29.75S FOG     WCI  28
ALEXANDRIA     FOG       30  30 100 S8        29.77R VSB 1/2 WCI  22
ELBOW LAKE     CLOUDY    32  31  99 SE9       29.75S FOG     WCI  24
WADENA         CLOUDY    30  28  93 S6        29.76S FOG     WCI  24
GLENWOOD       FOG       30  30 100 S7        29.77R VSB 1/2 WCI  23
APPLETON       CLOUDY    36  32  87 SE5       29.76R FOG
BENSON         CLOUDY    34  30  86 S8        29.77R FOG     WCI  27
ORTONVILLE     CLOUDY    34  30  86 SE5       29.75S FOG     WCI  30
MADISON        CLOUDY    37  36  93 SE6       29.74R FOG
WILLMAR        CLOUDY    34  30  86 SE7       29.77R FOG     WCI  28
$$
MNZ033>034-036-042>043-049>051-058-059-282300-
   Central Minnesota

CITY           SKY/WX    TMP DP  RH WIND       PRES   REMARKS
ST CLOUD       CLOUDY    29  27  92 E3        29.79S FOG
SAUK CENTRE    CLOUDY    30  29  96 S9        29.77S FOG     WCI  22
PAYNESVILLE    CLOUDY    28  28  99 E7        29.78R FOG     WCI  21
AITKIN         CLOUDY    30  25  80 SE7       29.79R HAZE    WCI  23
PINE RIVER     CLOUDY    28  28 100 S5        29.82R FOG     WCI  23
BRAINERD       CLOUDY    29  26  89 S10       29.79R FOG     WCI  20
STAPLES        CLOUDY    28  28 100 S8        29.78R FOG     WCI  20
LONG PRAIRIE   CLOUDY    30  30 100 SE9       29.77S FOG     WCI  22
LITTLE FALLS   CLOUDY    30  27  86 SE7       29.79S FOG     WCI  23
LITCHFIELD     CLOUDY    32  32 100 SE7       29.77F FOG     WCI  26
BUFFALO        CLOUDY    31  28  88 E7        29.80F FOG     WCI  24
MAPLE LAKE     CLOUDY    32  29  91 E5        29.80S FOG     WCI  27
$$
MNZ037-044-045-052-053-282300-
   East Central Minnesota

CITY           SKY/WX    TMP DP  RH WIND       PRES   REMARKS
PRINCETON      CLOUDY    30  27  86 SE6       29.81S FOG     WCI  24
MORA           CLOUDY    28  23  80 S6        29.83S WCI  22
CAMBRIDGE      CLOUDY    30  23  74 CALM      29.80S HAZE
RUSH CITY      CLOUDY    30  26  83 S5        29.83S WCI  25
MOOSE LAKE     CLOUDY    30  25  80 S3        29.80R HAZE
HINCKLEY       CLOUDY    32  27  80 S8        29.81F HAZE    WCI  25
CLOQUET        CLOUDY    28  23  80 S3        29.80S HAZE
MCGREGOR       CLOUDY    30  27  86 S9        29.80S WCI  22
$$
MNZ071>073-080-081-089-090-097-098-282300-
   Southwest Minnesota

CITY           SKY/WX    TMP DP  RH WIND       PRES   REMARKS
MONTEVIDEO     CLOUDY    34  34 100 SE5       29.76R FOG     WCI  30
GRANITE FALLS  CLOUDY    33  31  93 E3        29.75S FOG
CANBY          CLOUDY    36  33  89 E3        29.75R FOG
MARSHALL       CLOUDY    34  30  86 SE7       29.74S WCI  28
REDWOOD FALLS  CLOUDY    34  31  88 S8        29.75S FOG     WCI  27
OLIVIA         CLOUDY    32  32 100 SE7       29.75S FOG     WCI  26
PIPESTONE      CLOUDY    36  34  93 CALM      29.69R FOG
WINDOM         CLOUDY    34  30  86 CALM      29.73R FOG
WORTHINGTON    CLOUDY    34  30  86 S6        29.72R WCI  29
JACKSON        CLOUDY    32  32 100 S6        29.73R FOG     WCI  26
TRACY          CLOUDY    34  32  92 CALM      29.73R FOG
SLAYTON        CLOUDY    33  32  97 CALM      29.71S FOG
$$
MNZ065>067-074>077-082>085-091>093-282300-
   South Central Minnesota

CITY           SKY/WX    TMP DP  RH WIND       PRES   REMARKS
MANKATO        CLOUDY    34  28  80 S8        29.76R WCI  27
NEW ULM        CLOUDY    34  30  86 SE6       29.75S FOG     WCI  29
ST JAMES       CLOUDY    34  30  86 SE8       29.75S FOG     WCI  27
FAIRMONT       CLOUDY    34  28  80 SE21      29.68F WCI  22
GLENCOE        CLOUDY    33  32  96 SE8       29.77S FOG     WCI  26
FARIBAULT      CLOUDY    34  30  86 SE9       29.78R FOG     WCI  26
OWATONNA       PTSUNNY   34  28  80 SE10      29.77R HAZE    WCI  26
WASECA         CLOUDY    32  30  93 SE13      29.77S FOG     WCI  22
ALBERT LEA     CLOUDY    36  32  87 S12       29.75R FOG
$$
MNZ078>079-086>088-094>096-282300-
   Southeast Minnesota

CITY           SKY/WX    TMP DP  RH WIND       PRES   REMARKS
ROCHESTER      CLOUDY    33  28  81 SE16      29.76F HAZE    WCI  23
RED WING       CLOUDY    30  27  86 SE12      29.80F FOG     WCI  21
STANTON        CLOUDY    34  28  80 SE7       29.78S WCI  28
DODGE CENTER   CLOUDY    34  30  86 SE16      29.75F FOG     WCI  23
WINONA         CLOUDY    34  28  80 SE8       29.83F WCI  27
AUSTIN         CLOUDY    34  28  80 S9G17     29.76S FOG     WCI  26
PRESTON        CLOUDY    32  27  80 S17G23    29.77F WCI  21
$$
ABBREVIATIONS USED IN REMARKS
   TC - TEMPERATURES IN CELSIUS
  WCI - WIND CHILL INDEX
   HX - HEAT INDEX
  VSB - VISIBILITY
$$


USA.gov is the U.S. government's official web portal to all federal, state and local government web resources and services.